Flag for Germany Weather past 2 weeks in Garmisch-Partenkirchen, Bavaria, Germany

Now
23 °F

Snow. Broken clouds.


Feels Like: 18 °F
Forecast: 14 / 25 °F
Wind: 3 mph from East

Location: Innsbruck-Flughafen

Current Time: Dec 29, 2014 at 4:26:56 PM

Latest Report: Dec 29, 2014 at 3:50 PM


Visibility: 1 mi

Pressure: 30.30 "Hg

Humidity: 93%

Dew point: 21 °F

Location of Garmisch-PartenkirchenLocation

Historic Weather in Garmisch-Partenkirchen — Graph

°F

Garmisch-Partenkirchen temperature yesterday

Maximum temperature yesterday: 32 °F (at 1:20 PM)
Minimum temperature yesterday: 25 °F (at 12:20 AM)
Average temperature yesterday: 27 °F

Past Weeks' High & Low Weather Summary

 TemperatureHumidityPressure
High48 °F (Dec 19, 12:50 PM)100% (Dec 16, 2:20 AM)30.51 "Hg (Dec 16, 2:20 AM)
Low12 °F (Dec 29, 7:50 AM)37% (Dec 20, 9:50 PM)29.50 "Hg (Dec 27, 5:20 PM)
Average34 °F88%30.13 "Hg
* Reported Dec 14 3:20 PM — Dec 29 3:20 PM, Garmisch-Partenkirchen, Weather by CustomWeather, © 2014

Note: Actual official high and low records may vary slightly from our data, if they occured in-between our weather recording intervals... More about our weather records

Advertising

Garmisch-Partenkirchen weather history for previous 24 hours

 ConditionsComfort  
Time TempWeatherWind HumidityBarometerVisibility
3:20 PM
Dec 29
23 °FSnow. Broken clouds.5 mph93%30.30 "Hg1 mi
2:50 PM23 °FSnow. Broken clouds.1 mph93%30.30 "Hg1 mi
2:20 PM21 °FSnow. Broken clouds.1 mph93%30.30 "Hg1 mi
1:50 PM21 °FSnow. Broken clouds.1 mph93%30.30 "Hg1 mi
1:20 PM21 °FSnow. Broken clouds.3 mph86%30.30 "Hg1 mi
12:50 PM21 °FLight snow. Ice fog.1 mph80%30.30 "Hg1 mi
12:20 PM21 °FLight snow. Broken clouds.1 mph74%30.33 "HgN/A
11:50 AM21 °FBroken clouds.1 mph74%30.33 "HgN/A
11:20 AM19 °FPartly sunny.2 mph79%30.36 "HgN/A
10:50 AM19 °FPartly sunny.1 mph79%30.36 "HgN/A
10:20 AM18 °FBroken clouds.1 mph86%30.39 "HgN/A
9:50 AM16 °FPartly sunny.3 mph86%30.39 "HgN/A
9:20 AM14 °FBroken clouds.2 mph92%30.39 "HgN/A
8:50 AM14 °FPartly sunny.2 mph92%30.39 "HgN/A
8:20 AM12 °FBroken clouds.1 mph92%30.39 "HgN/A
7:50 AM12 °FPassing clouds.3 mph92%30.39 "HgN/A
7:20 AM14 °FPassing clouds.3 mph92%30.39 "HgN/A
6:50 AM14 °FPassing clouds.5 mph92%30.39 "HgN/A
6:20 AM16 °FPassing clouds.7 mph93%30.39 "HgN/A
5:50 AM16 °FPassing clouds.3 mph86%30.39 "HgN/A
5:20 AM18 °FPassing clouds.2 mph86%30.39 "HgN/A
4:50 AM14 °FPassing clouds.3 mph100%30.39 "HgN/A
4:20 AM16 °FSnow flurries. Passing clouds.5 mph93%30.36 "HgN/A
3:50 AM18 °FPassing clouds.5 mph86%30.36 "HgN/A
3:20 AM18 °FSnow flurries. Passing clouds.3 mph93%30.36 "HgN/A
2:50 AM19 °FSnow flurries. Passing clouds.2 mph93%30.33 "HgN/A
2:20 AM21 °FSnow flurries. Passing clouds.3 mph86%30.33 "HgN/A
1:50 AM23 °FSnow flurries. Passing clouds.6 mph80%30.33 "HgN/A
1:20 AM23 °FSnow flurries. Passing clouds.5 mph80%30.30 "Hg6 mi
12:50 AM23 °FSnow flurries. Passing clouds.6 mph80%30.30 "HgN/A
12:20 AM25 °FSnow flurries. Passing clouds.8 mph74%30.30 "HgN/A
11:50 PM
Dec 28
25 °FSnow flurries. Passing clouds.2 mph80%30.27 "HgN/A
11:20 PM25 °FSnow flurries. Overcast.1 mph86%30.27 "Hg4 mi
10:50 PM27 °FPartly cloudy.1 mph80%30.24 "HgN/A
10:20 PM27 °FPartly cloudy.3 mph86%30.24 "HgN/A
9:50 PM27 °FPartly cloudy.5 mph86%30.21 "HgN/A
9:20 PM27 °FPartly cloudy.9 mph86%30.21 "HgN/A
8:50 PM27 °FSnow flurries. Partly cloudy.6 mph86%30.18 "HgN/A
8:20 PM27 °FPartly cloudy.3 mph80%30.15 "HgN/A
7:50 PM28 °FSnow flurries. Partly cloudy.5 mph80%30.15 "HgN/A
7:20 PM28 °FPartly cloudy.6 mph74%30.12 "HgN/A
6:50 PM27 °FPartly cloudy.7 mph93%30.09 "HgN/A
6:20 PM28 °FPartly cloudy.3 mph74%30.07 "HgN/A
5:50 PM28 °FPartly cloudy.9 mph74%30.04 "Hg6 mi
5:20 PM28 °FLight snow. Partly cloudy.8 mph80%30.01 "Hg4 mi
4:50 PM28 °FLight snow. Partly cloudy.5 mph86%29.98 "Hg3 mi
4:20 PM30 °FBroken clouds.6 mph80%29.95 "Hg5 mi
Weather by CustomWeather, © 2014

See weather overviewHow to use our weather pages